Darstellungsparameter: Aktuell verwendete Einstellungen:
Skalierung der Graphiken ... ?
xyx+y,   Skalierungsfaktor:      Skalierung: Modus: x, Faktor: 1
Darstellungszeitraum ... ?
Vom - - bis: - -   Zeitraum: 10.09.2010 - 12.09.2010
Min/Max/Avg-Anzeige ... ?
Zeige MMA aktuell
Zeige MMA Monat
Zeige MMA alles
Zeige --A aktuell
Zeige --A Monat
Zeige --A alles
Keine MMA-Anzeige
MMA:
Average (ber die Originaldaten)
MMA-Basis: 10.09.2010 - 12.09.2010
Quicknavigation für Darstellung... ?
Tage:      1T, 2T, 3T, 5T -1T -2T -3T -5T +1T +2T +3T +5T
Wochen: 1W, 2W, 3W -1W -2W -3W +1W +2W +3W
Monate: 1M, 3M, 6M -1M -3M -6M +1M +3M +6M
Jahre:    1J, 3J, 5J, 10J -1J -3J -5J -10J +1J +3J +5J +10J
Nutze für die Darstellung ... ?
Originaldaten oder Mittelwerte auf ...
Stundenbasis Tagesbasis Wochenbasis
Monatsbasis Jahresbasis      Datenbasis: Original-Daten
Darstellen als:
Statistik (Auto) Statistik J:M      Darstellung:
Zur Graphik,    zurück zur Übersicht aller Sensoren.
 
Tabellarische Datenbersicht: ?
 
Sensor: Nr:Datum:Temp:Abs-Feuchte:Windchill:Wind:
Aussen-T/F 1 10-09-2010 00:08:03 14.9 C 9.81 g/m*3 14.9 C 0 km/h
2 10-09-2010 00:20:03 14.8 C 9.88 g/m*3 14.8 C 0 km/h
3 10-09-2010 00:32:03 14.6 C 10.01 g/m*3 14.6 C 0 km/h
4 10-09-2010 00:44:03 14.6 C 10.01 g/m*3 14.6 C 0 km/h
5 10-09-2010 00:56:03 14.4 C 9.89 g/m*3 14.4 C 0 km/h
6 10-09-2010 01:08:03 14.3 C 9.83 g/m*3 14.3 C 0 km/h
7 10-09-2010 01:20:03 14.1 C 9.71 g/m*3 14.1 C 0 km/h
8 10-09-2010 01:32:03 13.9 C 9.71 g/m*3 13.9 C 0 km/h
9 10-09-2010 01:44:03 13.8 C 9.77 g/m*3 13.8 C 0 km/h
10 10-09-2010 01:56:03 13.9 C 9.83 g/m*3 13.9 C 0 km/h
11 10-09-2010 02:08:03 13.8 C 9.89 g/m*3 13.8 C 0 km/h
12 10-09-2010 02:20:03 13.8 C 9.89 g/m*3 13.8 C 0 km/h
13 10-09-2010 02:32:03 13.9 C 10.07 g/m*3 13.9 C 0 km/h
14 10-09-2010 02:44:03 14 C 10.01 g/m*3 14 C 0 km/h
15 10-09-2010 02:56:03 14 C 9.89 g/m*3 14 C 0 km/h
16 10-09-2010 03:08:03 14 C 10.01 g/m*3 14 C 0 km/h
17 10-09-2010 03:20:03 14 C 10.01 g/m*3 14 C 0 km/h
18 10-09-2010 03:32:04 13.9 C 10.07 g/m*3 13.9 C 0 km/h
19 10-09-2010 03:44:04 13.8 C 10.13 g/m*3 13.8 C 0 km/h
20 10-09-2010 03:56:04 13.8 C 10.13 g/m*3 13.8 C 0 km/h
21 10-09-2010 04:08:04 13.9 C 10.31 g/m*3 13.9 C 0 km/h
22 10-09-2010 04:20:04 14 C 10.25 g/m*3 14 C 0 km/h
23 10-09-2010 04:32:04 13.9 C 10.31 g/m*3 13.9 C 0 km/h
24 10-09-2010 04:44:04 13.8 C 10.25 g/m*3 13.8 C 0 km/h
25 10-09-2010 04:56:04 13.6 C 10.12 g/m*3 13.6 C 0 km/h
Sensor: Nr:Datum:Temp:Abs-Feuchte:Windchill:Wind:
Aussen-T/F 26 10-09-2010 05:08:04 13.4 C 10 g/m*3 13.4 C 0 km/h
27 10-09-2010 05:20:04 13.2 C 9.99 g/m*3 13.2 C 0 km/h
28 10-09-2010 05:32:04 13.1 C 10.04 g/m*3 13.1 C 0 km/h
29 10-09-2010 05:44:04 12.8 C 9.97 g/m*3 12.8 C 0 km/h
30 10-09-2010 05:56:04 12.8 C 9.97 g/m*3 12.8 C 0 km/h
31 10-09-2010 06:08:04 13.2 C 10.33 g/m*3 13.2 C 0 km/h
32 10-09-2010 06:20:04 13 C 10.09 g/m*3 13 C 0 km/h
33 10-09-2010 06:32:04 13.1 C 10.27 g/m*3 13.1 C 0 km/h
34 10-09-2010 06:44:04 13.1 C 10.27 g/m*3 13.1 C 0 km/h
35 10-09-2010 06:56:04 13.2 C 10.22 g/m*3 13.2 C 0 km/h
36 10-09-2010 07:08:04 13.1 C 10.16 g/m*3 13.1 C 0 km/h
37 10-09-2010 07:20:04 13.2 C 9.99 g/m*3 13.2 C 0 km/h
38 10-09-2010 07:32:05 13.3 C 9.7 g/m*3 13.3 C 0 km/h
39 10-09-2010 07:44:05 13.2 C 9.64 g/m*3 13.2 C 0 km/h
40 10-09-2010 07:56:02 13.1 C 9.7 g/m*3 13.1 C 0 km/h
41 10-09-2010 08:08:02 13.1 C 9.81 g/m*3 13.1 C 0 km/h
42 10-09-2010 08:20:02 13.1 C 9.93 g/m*3 13.1 C 0 km/h
43 10-09-2010 08:32:02 13.2 C 9.99 g/m*3 13.2 C 0 km/h
44 10-09-2010 08:44:03 13.5 C 10.06 g/m*3 13.5 C 0 km/h
45 10-09-2010 08:56:02 13.7 C 9.95 g/m*3 13.7 C 0 km/h
46 10-09-2010 09:08:02 14 C 9.77 g/m*3 14 C 0 km/h
47 10-09-2010 09:20:02 14.4 C 9.64 g/m*3 14.4 C 0 km/h
48 10-09-2010 09:32:02 14.5 C 9.58 g/m*3 14.5 C 0 km/h
49 10-09-2010 09:44:02 14.9 C 9.43 g/m*3 14.9 C 0 km/h
50 10-09-2010 09:56:02 15.2 C 9.22 g/m*3 15.2 C 0 km/h
Sensor: Nr:Datum:Temp:Abs-Feuchte:Windchill:Wind:
Aussen-T/F 51 10-09-2010 10:08:02 15.5 C 9.39 g/m*3 15.5 C 0 km/h
52 10-09-2010 10:20:03 15.7 C 9.23 g/m*3 15.7 C 0 km/h
53 10-09-2010 10:32:02 16.2 C 9.38 g/m*3 16.2 C 0 km/h
54 10-09-2010 10:44:02 16.6 C 9.46 g/m*3 16.6 C 0 km/h
55 10-09-2010 10:56:02 16.8 C 9.29 g/m*3 16.8 C 0 km/h
56 10-09-2010 11:08:02 17.2 C 9.37 g/m*3 17.2 C 0 km/h
57 10-09-2010 11:20:02 17.7 C 9.51 g/m*3 17.7 C 0 km/h
58 10-09-2010 11:32:02 18.1 C 9.12 g/m*3 18.1 C 0 km/h
59 10-09-2010 11:44:02 18.1 C 8.96 g/m*3 18.1 C 0 km/h
60 10-09-2010 11:56:02 18.3 C 9.07 g/m*3 18.3 C 0 km/h
61 10-09-2010 12:08:01 18.6 C 9.07 g/m*3 18.6 C 0 km/h
62 10-09-2010 12:20:02 18.7 C 9.13 g/m*3 18.7 C 0 km/h
63 10-09-2010 12:32:02 18.4 C 9.12 g/m*3 18.4 C 0 km/h
64 10-09-2010 12:44:02 18.8 C 9.34 g/m*3 18.8 C 0 km/h
65 10-09-2010 12:56:02 19.2 C 9.23 g/m*3 19.2 C 0 km/h
66 10-09-2010 13:08:03 19.5 C 8.89 g/m*3 19.5 C 0 km/h
67 10-09-2010 13:20:02 19.4 C 8.84 g/m*3 19.4 C 0 km/h
68 10-09-2010 13:32:02 19 C 8.47 g/m*3 19 C 0 km/h
69 10-09-2010 13:44:02 19 C 8.47 g/m*3 19 C 0 km/h
70 10-09-2010 13:56:01 19 C 8.64 g/m*3 19 C 0 km/h
71 10-09-2010 14:08:02 19.3 C 8.79 g/m*3 19.3 C 0 km/h
72 10-09-2010 14:20:01 19.9 C 8.76 g/m*3 19.9 C 0 km/h
73 10-09-2010 14:32:01 20.4 C 8.67 g/m*3 20.4 C 0 km/h
74 10-09-2010 14:44:01 20.2 C 8.74 g/m*3 20.2 C 0 km/h
75 10-09-2010 14:56:01 19.9 C 8.76 g/m*3 19.9 C 0 km/h
Sensor: Nr:Datum:Temp:Abs-Feuchte:Windchill:Wind:
Aussen-T/F 76 10-09-2010 15:08:02 20 C 8.64 g/m*3 20 C 0 km/h
77 10-09-2010 15:20:02 20.6 C 8.95 g/m*3 20.6 C 0 km/h
78 10-09-2010 15:32:01 20.9 C 8.38 g/m*3 20.9 C 0 km/h
79 10-09-2010 15:44:01 21.2 C 8.34 g/m*3 21.2 C 0 km/h
80 10-09-2010 15:56:02 21.4 C 8.62 g/m*3 21.4 C 0 km/h
81 10-09-2010 16:08:01 21.2 C 8.34 g/m*3 21.2 C 0 km/h
82 10-09-2010 16:20:02 20.8 C 8.33 g/m*3 20.8 C 0 km/h
83 10-09-2010 16:32:01 21.1 C 8.48 g/m*3 21.1 C 0 km/h
84 10-09-2010 16:44:01 21.2 C 8.71 g/m*3 21.2 C 0 km/h
85 10-09-2010 16:56:02 21.2 C 8.34 g/m*3 21.2 C 0 km/h
86 10-09-2010 17:08:02 20.9 C 8.56 g/m*3 20.9 C 0 km/h
87 10-09-2010 17:20:02 20.5 C 8.9 g/m*3 20.5 C 0 km/h
88 10-09-2010 17:32:03 20.1 C 9.04 g/m*3 20.1 C 0 km/h
89 10-09-2010 17:44:03 19.8 C 9.39 g/m*3 19.8 C 0 km/h
90 10-09-2010 17:56:02 19.6 C 8.95 g/m*3 19.6 C 0 km/h
91 10-09-2010 18:08:02 19.4 C 9.18 g/m*3 19.4 C 0 km/h
92 10-09-2010 18:20:02 18.9 C 9.56 g/m*3 18.9 C 0 km/h
93 10-09-2010 18:32:02 17.8 C 10.17 g/m*3 17.8 C 0 km/h
94 10-09-2010 18:44:02 16.8 C 10.72 g/m*3 16.8 C 0 km/h
95 10-09-2010 18:56:02 16.4 C 11.03 g/m*3 16.4 C 0 km/h
96 10-09-2010 19:08:02 16.4 C 11.31 g/m*3 16.4 C 0 km/h
97 10-09-2010 19:20:02 16.8 C 11.72 g/m*3 16.8 C 0 km/h
98 10-09-2010 19:32:02 16.3 C 11.38 g/m*3 16.3 C 0 km/h
99 10-09-2010 19:44:02 16 C 11.31 g/m*3 16 C 0 km/h
100 10-09-2010 19:56:02 15.8 C 11.44 g/m*3 15.8 C 0 km/h
Sensor: Nr:Datum:Temp:Abs-Feuchte:Windchill:Wind:
Aussen-T/F 101 10-09-2010 20:08:03 15.8 C 11.58 g/m*3 15.8 C 0 km/h
102 10-09-2010 20:20:02 15.7 C 11.51 g/m*3 15.7 C 0 km/h
103 10-09-2010 20:32:03 15.6 C 11.57 g/m*3 15.6 C 0 km/h
104 10-09-2010 20:44:03 15.6 C 11.57 g/m*3 15.6 C 0 km/h
105 10-09-2010 20:56:02 15.7 C 11.64 g/m*3 15.7 C 0 km/h
106 10-09-2010 21:08:01 15.8 C 11.71 g/m*3 15.8 C 0 km/h
107 10-09-2010 21:20:02 15.8 C 11.71 g/m*3 15.8 C 0 km/h
108 10-09-2010 21:32:02 15.8 C 11.71 g/m*3 15.8 C 0 km/h
109 10-09-2010 21:44:02 15.8 C 11.71 g/m*3 15.8 C 0 km/h
110 10-09-2010 21:56:02 15.8 C 11.58 g/m*3 15.8 C 0 km/h
111 10-09-2010 22:08:01 15.8 C 11.58 g/m*3 15.8 C 0 km/h
112 10-09-2010 22:20:02 15.8 C 11.58 g/m*3 15.8 C 0 km/h
113 10-09-2010 22:32:01 15.7 C 11.51 g/m*3 15.7 C 0 km/h
114 10-09-2010 22:44:01 15.6 C 11.3 g/m*3 15.6 C 0 km/h
115 10-09-2010 22:57:03 15.5 C 11.24 g/m*3 15.5 C 0 km/h
116 10-09-2010 23:09:03 15.6 C 11.3 g/m*3 15.6 C 0 km/h
117 10-09-2010 23:21:03 15.5 C 11.24 g/m*3 15.5 C 0 km/h
118 10-09-2010 23:33:03 15.5 C 11.24 g/m*3 15.5 C 0 km/h
119 10-09-2010 23:45:03 15.4 C 11.17 g/m*3 15.4 C 0 km/h
120 10-09-2010 23:57:03 15.3 C 10.97 g/m*3 15.3 C 0 km/h
121 11-09-2010 00:09:03 15.2 C 10.9 g/m*3 15.2 C 0 km/h
122 11-09-2010 00:21:03 15.2 C 10.9 g/m*3 15.2 C 0 km/h
123 11-09-2010 00:33:03 15.1 C 10.84 g/m*3 15.1 C 0 km/h
124 11-09-2010 00:45:03 15.1 C 10.84 g/m*3 15.1 C 0 km/h
125 11-09-2010 00:57:03 15.1 C 10.84 g/m*3 15.1 C 0 km/h
Sensor: Nr:Datum:Temp:Abs-Feuchte:Windchill:Wind:
Aussen-T/F 126 11-09-2010 01:09:03 15.1 C 10.84 g/m*3 15.1 C 0 km/h
127 11-09-2010 01:21:03 15 C 10.77 g/m*3 15 C 0 km/h
128 11-09-2010 01:33:03 15 C 10.77 g/m*3 15 C 0 km/h
129 11-09-2010 01:45:04 15 C 10.77 g/m*3 15 C 0 km/h
130 11-09-2010 01:57:04 14.9 C 10.83 g/m*3 14.9 C 0 km/h
131 11-09-2010 02:09:04 14.9 C 10.83 g/m*3 14.9 C 0 km/h
132 11-09-2010 02:21:04 14.8 C 10.77 g/m*3 14.8 C 0 km/h
133 11-09-2010 02:33:04 14.7 C 10.58 g/m*3 14.7 C 0 km/h
134 11-09-2010 02:45:04 14.7 C 10.7 g/m*3 14.7 C 0 km/h
135 11-09-2010 02:57:04 14.6 C 10.76 g/m*3 14.6 C 0 km/h
136 11-09-2010 03:09:04 14.4 C 10.63 g/m*3 14.4 C 0 km/h
137 11-09-2010 03:21:04 14.3 C 10.57 g/m*3 14.3 C 0 km/h
138 11-09-2010 03:33:04 14.1 C 10.44 g/m*3 14.1 C 0 km/h
139 11-09-2010 03:45:04 14 C 10.37 g/m*3 14 C 0 km/h
140 11-09-2010 03:57:04 13.6 C 10.12 g/m*3 13.6 C 0 km/h
141 11-09-2010 04:09:04 13.5 C 10.06 g/m*3 13.5 C 0 km/h
142 11-09-2010 04:21:04 13.3 C 9.94 g/m*3 13.3 C 0 km/h
143 11-09-2010 04:33:04 13.1 C 9.81 g/m*3 13.1 C 0 km/h
144 11-09-2010 04:45:04 13 C 9.75 g/m*3 13 C 0 km/h
145 11-09-2010 04:57:04 12.8 C 9.74 g/m*3 12.8 C 0 km/h
146 11-09-2010 05:09:04 12.6 C 9.62 g/m*3 12.6 C 0 km/h
147 11-09-2010 05:21:04 12.5 C 9.68 g/m*3 12.5 C 0 km/h
148 11-09-2010 05:33:04 12.6 C 9.74 g/m*3 12.6 C 0 km/h
149 11-09-2010 05:45:05 12.7 C 9.91 g/m*3 12.7 C 0 km/h
150 11-09-2010 05:57:05 12.8 C 9.97 g/m*3 12.8 C 0 km/h
Sensor: Nr:Datum:Temp:Abs-Feuchte:Windchill:Wind:
Aussen-T/F 151 11-09-2010 06:09:05 13 C 10.09 g/m*3 13 C 0 km/h
152 11-09-2010 06:21:05 13.1 C 10.16 g/m*3 13.1 C 0 km/h
153 11-09-2010 06:33:05 12.8 C 9.97 g/m*3 12.8 C 0 km/h
154 11-09-2010 06:45:05 12.5 C 9.78 g/m*3 12.5 C 0 km/h
155 11-09-2010 06:57:05 12.3 C 9.56 g/m*3 12.3 C 0 km/h
156 11-09-2010 07:09:05 12.1 C 9.44 g/m*3 12.1 C 0 km/h
157 11-09-2010 07:21:05 12.1 C 9.44 g/m*3 12.1 C 0 km/h
158 11-09-2010 07:33:05 12.1 C 9.54 g/m*3 12.1 C 0 km/h
159 11-09-2010 07:45:05 12.1 C 9.54 g/m*3 12.1 C 0 km/h
160 11-09-2010 07:57:05 12.4 C 9.72 g/m*3 12.4 C 0 km/h
161 11-09-2010 08:09:05 12.7 C 10.02 g/m*3 12.7 C 0 km/h
162 11-09-2010 08:21:03 13 C 10.21 g/m*3 13 C 0 km/h
163 11-09-2010 08:33:02 13 C 10.21 g/m*3 13 C 0 km/h
164 11-09-2010 08:45:02 13.1 C 10.27 g/m*3 13.1 C 0 km/h
165 11-09-2010 08:57:02 13.4 C 10.46 g/m*3 13.4 C 0 km/h
166 11-09-2010 09:09:02 13.4 C 10.35 g/m*3 13.4 C 0 km/h
167 11-09-2010 09:21:02 13.5 C 10.41 g/m*3 13.5 C 0 km/h
168 11-09-2010 09:33:02 13.7 C 10.54 g/m*3 13.7 C 0 km/h
169 11-09-2010 09:45:01 13.9 C 10.67 g/m*3 13.9 C 0 km/h
170 11-09-2010 09:57:01 14.3 C 10.81 g/m*3 14.3 C 0 km/h
171 11-09-2010 10:09:02 14.7 C 11.08 g/m*3 14.7 C 0 km/h
172 11-09-2010 10:21:01 15 C 11.03 g/m*3 15 C 0 km/h
173 11-09-2010 10:33:01 15.6 C 11.3 g/m*3 15.6 C 0 km/h
174 11-09-2010 10:45:01 16.2 C 11.45 g/m*3 16.2 C 0 km/h
175 11-09-2010 10:57:01 16.8 C 11.72 g/m*3 16.8 C 0 km/h
Sensor: Nr:Datum:Temp:Abs-Feuchte:Windchill:Wind:
Aussen-T/F 176 11-09-2010 11:09:01 17.1 C 11.5 g/m*3 17.1 C 0 km/h
177 11-09-2010 11:21:02 17.5 C 11.18 g/m*3 17.5 C 0 km/h
178 11-09-2010 11:33:01 18.2 C 11.35 g/m*3 18.2 C 0 km/h
179 11-09-2010 11:45:03 19.1 C 11.31 g/m*3 19.1 C 0 km/h
180 11-09-2010 11:57:03 19.3 C 11.44 g/m*3 19.3 C 0 km/h
181 11-09-2010 12:09:02 19.2 C 9.89 g/m*3 19.2 C 0 km/h
182 11-09-2010 12:21:02 19.6 C 9.96 g/m*3 19.6 C 0 km/h
183 11-09-2010 12:33:02 19.9 C 9.45 g/m*3 19.9 C 0 km/h
184 11-09-2010 12:45:02 20.2 C 9.27 g/m*3 20.2 C 0 km/h
185 11-09-2010 12:57:02 20.6 C 9.31 g/m*3 20.6 C 0 km/h
186 11-09-2010 13:09:02 20.9 C 9.11 g/m*3 20.9 C 0 km/h
187 11-09-2010 13:21:02 21.3 C 8.76 g/m*3 21.3 C 0 km/h
188 11-09-2010 13:33:01 21.7 C 8.97 g/m*3 21.7 C 0 km/h
189 11-09-2010 13:45:02 22.2 C 8.44 g/m*3 22.2 C 0 km/h
190 11-09-2010 13:57:03 22.7 C 8.69 g/m*3 22.7 C 0 km/h
191 11-09-2010 14:09:01 23.3 C 8.15 g/m*3 23.3 C 0 km/h
192 11-09-2010 14:21:01 23.9 C 8.44 g/m*3 23.9 C 0 km/h
193 11-09-2010 14:33:02 24.3 C 8.19 g/m*3 24.3 C 0 km/h
194 11-09-2010 14:45:02 24.5 C 7.83 g/m*3 24.5 C 0 km/h
195 11-09-2010 14:57:02 25 C 8.06 g/m*3 25 C 0 km/h
196 11-09-2010 15:09:02 25.6 C 8.09 g/m*3 25.6 C 0 km/h
197 11-09-2010 15:21:02 25.7 C 7.9 g/m*3 25.7 C 0 km/h
198 11-09-2010 15:33:02 25.6 C 8.57 g/m*3 25.6 C 0 km/h
199 11-09-2010 15:45:02 26.5 C 7.51 g/m*3 26.5 C 0 km/h
200 11-09-2010 15:57:02 26.8 C 7.13 g/m*3 26.8 C 0 km/h
Sensor: Nr:Datum:Temp:Abs-Feuchte:Windchill:Wind:
Aussen-T/F 201 11-09-2010 16:09:02 25.7 C 7.66 g/m*3 25.7 C 0 km/h
202 11-09-2010 16:21:02 25.3 C 9.13 g/m*3 25.3 C 0 km/h
203 11-09-2010 16:33:02 26.5 C 8.01 g/m*3 26.5 C 0 km/h
204 11-09-2010 16:45:02 26.4 C 7.72 g/m*3 26.4 C 0 km/h
205 11-09-2010 16:57:02 27.8 C 8.34 g/m*3 27.8 C 0 km/h
206 11-09-2010 17:09:02 28 C 7.61 g/m*3 28 C 0 km/h
207 11-09-2010 17:21:02 27.3 C 7.85 g/m*3 27.3 C 0 km/h
208 11-09-2010 17:33:02 27.5 C 8.47 g/m*3 27.5 C 0 km/h
209 11-09-2010 17:45:02 27.6 C 8.78 g/m*3 27.6 C 0 km/h
210 11-09-2010 17:57:02 27.7 C 8.83 g/m*3 27.7 C 0 km/h
211 11-09-2010 18:09:02 27.5 C 9.26 g/m*3 27.5 C 0 km/h
212 11-09-2010 18:21:02 26.8 C 9.16 g/m*3 26.8 C 0 km/h
213 11-09-2010 18:33:01 26.3 C 8.91 g/m*3 26.3 C 0 km/h
214 11-09-2010 18:45:02 25.3 C 9.36 g/m*3 25.3 C 0 km/h
215 11-09-2010 18:57:02 24.4 C 9.57 g/m*3 24.4 C 0 km/h
216 11-09-2010 19:09:01 23.7 C 9.63 g/m*3 23.7 C 0 km/h
217 11-09-2010 19:21:02 22.6 C 9.64 g/m*3 22.6 C 0 km/h
218 11-09-2010 19:33:02 21.6 C 10.05 g/m*3 21.6 C 0 km/h
219 11-09-2010 19:45:02 20.7 C 9.72 g/m*3 20.7 C 0 km/h
220 11-09-2010 19:57:02 20.2 C 9.44 g/m*3 20.2 C 0 km/h
221 11-09-2010 20:09:02 20 C 9.33 g/m*3 20 C 0 km/h
222 11-09-2010 20:21:02 19.5 C 9.4 g/m*3 19.5 C 0 km/h
223 11-09-2010 20:33:02 19.3 C 9.45 g/m*3 19.3 C 0 km/h
224 11-09-2010 20:45:01 19.1 C 9.67 g/m*3 19.1 C 0 km/h
225 11-09-2010 20:57:01 18.8 C 9.66 g/m*3 18.8 C 0 km/h
Sensor: Nr:Datum:Temp:Abs-Feuchte:Windchill:Wind:
Aussen-T/F 226 11-09-2010 21:09:02 18.6 C 9.71 g/m*3 18.6 C 0 km/h
227 11-09-2010 21:21:01 18.4 C 9.91 g/m*3 18.4 C 0 km/h
228 11-09-2010 21:33:01 18.2 C 10.1 g/m*3 18.2 C 0 km/h
229 11-09-2010 21:45:01 17.7 C 10.11 g/m*3 17.7 C 0 km/h
230 11-09-2010 21:57:01 17.6 C 10.2 g/m*3 17.6 C 0 km/h
231 11-09-2010 22:09:02 17.6 C 10.2 g/m*3 17.6 C 0 km/h
232 11-09-2010 22:21:01 17.4 C 10.23 g/m*3 17.4 C 0 km/h
233 11-09-2010 22:34:03 17.2 C 10.1 g/m*3 17.2 C 0 km/h
234 11-09-2010 22:46:03 16.9 C 10.36 g/m*3 16.9 C 0 km/h
235 11-09-2010 22:58:03 16.9 C 10.5 g/m*3 16.9 C 0 km/h
236 11-09-2010 23:10:03 17 C 10.42 g/m*3 17 C 0 km/h
237 11-09-2010 23:22:03 16.6 C 10.45 g/m*3 16.6 C 0 km/h
238 11-09-2010 23:34:03 16.5 C 10.39 g/m*3 16.5 C 0 km/h
239 11-09-2010 23:46:03 16.4 C 10.33 g/m*3 16.4 C 0 km/h
240 11-09-2010 23:58:03 16.3 C 10.41 g/m*3 16.3 C 0 km/h
241 12-09-2010 00:10:03 16.2 C 10.48 g/m*3 16.2 C 0 km/h
242 12-09-2010 00:22:03 16.2 C 10.48 g/m*3 16.2 C 0 km/h
243 12-09-2010 00:34:03 16.1 C 10.42 g/m*3 16.1 C 0 km/h
244 12-09-2010 00:46:03 16 C 10.35 g/m*3 16 C 0 km/h
245 12-09-2010 00:58:03 15.8 C 10.36 g/m*3 15.8 C 0 km/h
246 12-09-2010 01:10:03 15.6 C 10.37 g/m*3 15.6 C 0 km/h
247 12-09-2010 01:22:04 15.5 C 10.31 g/m*3 15.5 C 0 km/h
248 12-09-2010 01:34:04 15.2 C 10.25 g/m*3 15.2 C 0 km/h
249 12-09-2010 01:46:04 15.2 C 10.38 g/m*3 15.2 C 0 km/h
250 12-09-2010 01:58:04 15.2 C 10.38 g/m*3 15.2 C 0 km/h
Sensor: Nr:Datum:Temp:Abs-Feuchte:Windchill:Wind:
Aussen-T/F 251 12-09-2010 02:10:04 15 C 10.26 g/m*3 15 C 0 km/h
252 12-09-2010 02:22:04 15 C 10.39 g/m*3 15 C 0 km/h
253 12-09-2010 02:34:04 14.9 C 10.45 g/m*3 14.9 C 0 km/h
254 12-09-2010 02:46:04 14.8 C 10.51 g/m*3 14.8 C 0 km/h
255 12-09-2010 02:58:04 14.7 C 10.32 g/m*3 14.7 C 0 km/h
256 12-09-2010 03:10:04 14.7 C 10.32 g/m*3 14.7 C 0 km/h
257 12-09-2010 03:22:04 14.6 C 10.26 g/m*3 14.6 C 0 km/h
258 12-09-2010 03:34:04 14.4 C 10.14 g/m*3 14.4 C 0 km/h
259 12-09-2010 03:46:04 14.3 C 10.07 g/m*3 14.3 C 0 km/h
260 12-09-2010 03:58:04 14.3 C 10.2 g/m*3 14.3 C 0 km/h
261 12-09-2010 04:10:04 14.2 C 10.14 g/m*3 14.2 C 0 km/h
262 12-09-2010 04:22:04 14.1 C 10.07 g/m*3 14.1 C 0 km/h
263 12-09-2010 04:34:05 14.1 C 10.07 g/m*3 14.1 C 0 km/h
264 12-09-2010 04:46:05 14.1 C 10.07 g/m*3 14.1 C 0 km/h
265 12-09-2010 04:58:05 14 C 10.01 g/m*3 14 C 0 km/h
266 12-09-2010 05:10:05 13.9 C 10.07 g/m*3 13.9 C 0 km/h
267 12-09-2010 05:22:05 13.7 C 9.95 g/m*3 13.7 C 0 km/h
268 12-09-2010 05:34:05 13.8 C 10.01 g/m*3 13.8 C 0 km/h
269 12-09-2010 05:46:05 13.7 C 9.95 g/m*3 13.7 C 0 km/h
270 12-09-2010 05:58:05 13.7 C 9.95 g/m*3 13.7 C 0 km/h
271 12-09-2010 06:10:05 13.7 C 9.95 g/m*3 13.7 C 0 km/h
272 12-09-2010 06:22:05 13.5 C 9.94 g/m*3 13.5 C 0 km/h
273 12-09-2010 06:34:05 13.5 C 9.94 g/m*3 13.5 C 0 km/h
274 12-09-2010 06:46:05 13.5 C 9.94 g/m*3 13.5 C 0 km/h
275 12-09-2010 06:58:05 13.4 C 9.88 g/m*3 13.4 C 0 km/h
Sensor: Nr:Datum:Temp:Abs-Feuchte:Windchill:Wind:
Aussen-T/F 276 12-09-2010 07:10:05 13.5 C 9.94 g/m*3 13.5 C 0 km/h
277 12-09-2010 07:22:05 13.5 C 10.06 g/m*3 13.5 C 0 km/h
278 12-09-2010 07:34:05 13.6 C 10.12 g/m*3 13.6 C 0 km/h
279 12-09-2010 07:46:02 13.8 C 10.25 g/m*3 13.8 C 0 km/h
280 12-09-2010 07:58:02 14.1 C 10.32 g/m*3 14.1 C 0 km/h
281 12-09-2010 08:10:02 14.1 C 10.32 g/m*3 14.1 C 0 km/h
282 12-09-2010 08:22:01 14.4 C 10.38 g/m*3 14.4 C 0 km/h
283 12-09-2010 08:34:02 14.5 C 10.32 g/m*3 14.5 C 0 km/h
284 12-09-2010 08:46:02 14 C 10.13 g/m*3 14 C 0 km/h
285 12-09-2010 08:58:02 14.3 C 10.32 g/m*3 14.3 C 0 km/h
286 12-09-2010 09:10:02 14.8 C 10.64 g/m*3 14.8 C 0 km/h
287 12-09-2010 09:22:02 14.8 C 10.39 g/m*3 14.8 C 0 km/h
288 12-09-2010 09:34:02 14.8 C 10.51 g/m*3 14.8 C 0 km/h
289 12-09-2010 09:46:02 15 C 10.51 g/m*3 15 C 0 km/h
290 12-09-2010 09:58:02 14.8 C 10.51 g/m*3 14.8 C 0 km/h
291 12-09-2010 10:10:02 15.3 C 10.84 g/m*3 15.3 C 0 km/h
292 12-09-2010 10:22:03 15.9 C 11.1 g/m*3 15.9 C 0 km/h
293 12-09-2010 10:34:02 16.8 C 11.29 g/m*3 16.8 C 0 km/h
294 12-09-2010 10:46:02 18 C 11.37 g/m*3 18 C 0 km/h
295 12-09-2010 10:58:02 18.7 C 11.05 g/m*3 18.7 C 0 km/h
296 12-09-2010 11:10:02 19.5 C 10.41 g/m*3 19.5 C 0 km/h
297 12-09-2010 11:22:02 20.2 C 10.67 g/m*3 20.2 C 0 km/h
298 12-09-2010 11:34:02 20.1 C 10.6 g/m*3 20.1 C 0 km/h
299 12-09-2010 11:46:02 20 C 10.89 g/m*3 20 C 0 km/h
300 12-09-2010 11:58:02 20.3 C 10.9 g/m*3 20.3 C 0 km/h
Sensor: Nr:Datum:Temp:Abs-Feuchte:Windchill:Wind:
Aussen-T/F 301 12-09-2010 12:10:01 20.5 C 10.85 g/m*3 20.5 C 0 km/h
302 12-09-2010 12:22:02 20.9 C 11.11 g/m*3 20.9 C 0 km/h
303 12-09-2010 12:34:01 21.4 C 11.06 g/m*3 21.4 C 0 km/h
304 12-09-2010 12:46:01 22.4 C 10.33 g/m*3 22.4 C 0 km/h
305 12-09-2010 12:58:02 22.9 C 10.22 g/m*3 22.9 C 0 km/h
306 12-09-2010 13:10:01 23.1 C 10.34 g/m*3 23.1 C 0 km/h
307 12-09-2010 13:22:01 23.7 C 10.48 g/m*3 23.7 C 0 km/h
308 12-09-2010 13:34:02 24.3 C 9.74 g/m*3 24.3 C 0 km/h
309 12-09-2010 13:46:02 25 C 8.98 g/m*3 25 C 0 km/h
310 12-09-2010 13:58:02 25.9 C 9.44 g/m*3 25.9 C 0 km/h
311 12-09-2010 14:10:02 25.7 C 9.34 g/m*3 25.7 C 0 km/h
312 12-09-2010 14:22:01 25 C 8.06 g/m*3 25 C 0 km/h
313 12-09-2010 14:34:02 24.7 C 8.15 g/m*3 24.7 C 0 km/h
314 12-09-2010 14:46:02 23.1 C 9.72 g/m*3 23.1 C 0 km/h
315 12-09-2010 14:58:02 20.8 C 10.14 g/m*3 20.8 C 0 km/h
316 12-09-2010 15:10:02 19.5 C 9.23 g/m*3 19.5 C 0 km/h
317 12-09-2010 15:22:02 19.1 C 8.69 g/m*3 19.1 C 0 km/h
318 12-09-2010 15:34:02 19.4 C 8.84 g/m*3 19.4 C 0 km/h
319 12-09-2010 15:46:02 19.4 C 8.84 g/m*3 19.4 C 0 km/h
320 12-09-2010 15:58:02 19.2 C 8.74 g/m*3 19.2 C 0 km/h
321 12-09-2010 16:10:02 17.9 C 8.86 g/m*3 17.9 C 0 km/h
322 12-09-2010 16:22:02 18.1 C 9.12 g/m*3 18.1 C 0 km/h
323 12-09-2010 16:34:02 18.1 C 9.27 g/m*3 18.1 C 0 km/h
324 12-09-2010 16:46:02 17.6 C 9.3 g/m*3 17.6 C 0 km/h
325 12-09-2010 16:58:02 17.2 C 9.37 g/m*3 17.2 C 0 km/h
Sensor: Nr:Datum:Temp:Abs-Feuchte:Windchill:Wind:
Aussen-T/F 326 12-09-2010 17:10:02 17.2 C 9.52 g/m*3 17.2 C 0 km/h
327 12-09-2010 17:22:02 16.6 C 9.04 g/m*3 16.6 C 0 km/h
328 12-09-2010 17:34:01 16.1 C 9.46 g/m*3 16.1 C 0 km/h
329 12-09-2010 17:46:02 15.6 C 9.97 g/m*3 15.6 C 0 km/h
330 12-09-2010 17:58:02 15.5 C 10.31 g/m*3 15.5 C 0 km/h
331 12-09-2010 18:10:01 15.2 C 10.25 g/m*3 15.2 C 0 km/h
332 12-09-2010 18:22:02 15.2 C 10.51 g/m*3 15.2 C 0 km/h
333 12-09-2010 18:34:02 14.9 C 10.58 g/m*3 14.9 C 0 km/h
334 12-09-2010 18:46:02 14.7 C 10.7 g/m*3 14.7 C 0 km/h
335 12-09-2010 18:58:02 14.6 C 10.89 g/m*3 14.6 C 0 km/h
336 12-09-2010 19:10:02 14.5 C 10.82 g/m*3 14.5 C 0 km/h
337 12-09-2010 19:22:02 14.3 C 10.69 g/m*3 14.3 C 0 km/h
338 12-09-2010 19:34:02 14.1 C 10.68 g/m*3 14.1 C 0 km/h
339 12-09-2010 19:46:01 14.3 C 10.93 g/m*3 14.3 C 0 km/h
340 12-09-2010 19:58:01 14.1 C 10.8 g/m*3 14.1 C 0 km/h
341 12-09-2010 20:10:02 14 C 10.74 g/m*3 14 C 0 km/h
342 12-09-2010 20:22:01 13.9 C 10.79 g/m*3 13.9 C 0 km/h
343 12-09-2010 20:34:01 13.8 C 10.84 g/m*3 13.8 C 0 km/h
344 12-09-2010 20:46:01 13.7 C 10.78 g/m*3 13.7 C 0 km/h
345 12-09-2010 20:58:01 13.7 C 10.89 g/m*3 13.7 C 0 km/h
346 12-09-2010 21:10:02 13.6 C 10.83 g/m*3 13.6 C 0 km/h
347 12-09-2010 21:22:01 13.7 C 10.89 g/m*3 13.7 C 0 km/h
348 12-09-2010 21:34:01 13.7 C 10.89 g/m*3 13.7 C 0 km/h
349 12-09-2010 21:46:01 13.9 C 11.15 g/m*3 13.9 C 0 km/h
350 12-09-2010 21:58:01 14 C 11.1 g/m*3 14 C 0 km/h
Sensor: Nr:Datum:Temp:Abs-Feuchte:Windchill:Wind:
Aussen-T/F 351 12-09-2010 22:10:02 13.9 C 11.15 g/m*3 13.9 C 0 km/h
352 12-09-2010 22:22:01 13.9 C 11.15 g/m*3 13.9 C 0 km/h
353 12-09-2010 22:34:02 13.8 C 11.08 g/m*3 13.8 C 0 km/h
354 12-09-2010 22:46:02 13.7 C 11.01 g/m*3 13.7 C 0 km/h
355 12-09-2010 22:58:02 13.6 C 10.95 g/m*3 13.6 C 0 km/h
356 12-09-2010 23:10:01 13.5 C 10.88 g/m*3 13.5 C 0 km/h
357 12-09-2010 23:22:02 13.5 C 10.88 g/m*3 13.5 C 0 km/h
358 12-09-2010 23:34:02 13.5 C 10.88 g/m*3 13.5 C 0 km/h
359 12-09-2010 23:46:02 13.7 C 11.01 g/m*3 13.7 C 0 km/h
360 12-09-2010 23:58:02 13.7 C 11.01 g/m*3 13.7 C 0 km/h

Legende:
   Min
   Max


Maximal/Minimal-Werte vom 10.09.2010 - 12.09.2010

Sensor Min Max Avg
Temp
(Aussen-T/F)
12.1 °C
11-09-2010  07:09:05
28 °C
11-09-2010  17:09:02
16.84 °C
Abs-Feuchte
(Aussen-T/F)
7.13 g/m*3
11-09-2010  15:57:02
11.72 g/m*3
10-09-2010  19:20:02
9.97 g/m*3
Windchill
(Aussen-T/F)
12.1 C
11-09-2010  07:09:05
28 C
11-09-2010  17:09:02
16.8 C

Die Daten stammen von einer Davis Vantage Pro 2 Wetter-Station und werden unter Linux mit der Software wview2wettercgi und aufbereitet. Alle Angaben erfolgen ohne Gewähr für ihre Vollständigkeit oder Richtigkeit.
Kontakt: Rainer Krienke krienke@uni-koblenz.de . Meine Webseiten an der Uni Koblenz oder privat.
Version: $Revision: 0.78 $